User: anonymous   Login
Location: Nebula Knoll Observatory
(43.6666°N, 71.0000°W)
Time: 13:08:03
(UTC-05:00)
Language:

Cosmos 1782 - Orbit

View from above orbital plane
View from above orbital plane
View from above satellite
View from above satellite

Ground track
Ground track

The orbit data is extracted from the following two-line orbital elements,

1 16986U 86074A   15032.11870973  .00004295  00000-0  30655-3 0  9589
2 16986 082.5049 243.6828 0013093 062.4789 297.7766 15.04237038540371
Epoch (UTC): 01 February 2015 02:50:56
Eccentricity: 0.0013093
inclination: 82.5049°
perigee height: 545 km
apogee height: 563 km
right ascension of ascending node: 243.6828°
argument of perigee: 62.4789°
revolutions per day: 15.04237038
mean anomaly at epoch: 297.7766°
orbit number at epoch: 54037

The dashed part of the orbit path shows where the satellite is in the earth's shadow,  

DLR